Date String (YYYY-MM-DD hh:mm:ss) UTC,Instrument flags,Ambient pressure (hPa),Sample flow (lpm),Bypass flow (lpm),Sample temperature (°C),Ambient temperature (°C),ASC tube jacket temperature (°C),LED temperature (°C),Box temperature (°C),Sample RH (%),Span deviation,Mass concentration (μg/m³),Mass concentration (μg/m³),Mass concentration (μg/m³)
DateTimeUTC,F1_M11,P_M11,Q1_M11,Q2_M11,T1_M11,T2_M11,T3_M11,T4_M11,T5_M11,U1_M11,ZSPAN_M11,X0_M11,X2_M11,X1_M11
2021-12-08 20:00:00,,0814.1,5.00,0.00,24.6,23.9,00.0,33.5,26.3,06.5,0000.0,0015.00,0003.53,0002.22
2021-12-08 20:01:00,,0814.2,5.01,0.00,24.6,23.9,00.0,33.5,26.3,06.6,0000.0,0014.33,0003.33,0001.99
2021-12-08 20:02:00,,0814.1,4.98,0.00,24.6,23.9,00.0,33.5,26.4,06.5,0000.0,0013.18,0003.19,0001.80
2021-12-08 20:03:00,,0814.2,5.01,0.00,24.6,23.9,00.0,33.5,26.4,06.4,0000.0,0012.02,0002.95,0001.62
2021-12-08 20:04:00,,0814.2,5.01,0.00,24.6,23.9,00.0,33.5,26.4,06.2,0000.0,0011.51,0002.71,0001.48
2021-12-08 20:05:00,,0814.0,5.00,0.00,24.6,23.9,00.0,33.5,26.4,06.1,0000.0,0011.10,0002.47,0001.34
2021-12-08 20:06:00,,0814.0,5.00,0.00,24.6,23.9,00.0,33.5,26.4,05.9,0000.0,0009.98,0002.19,0001.20
2021-12-08 20:07:00,,0814.0,5.01,0.00,24.6,23.9,00.0,33.6,26.4,05.9,0000.0,0009.26,0001.92,0001.09
2021-12-08 20:08:00,,0814.0,4.99,0.00,24.6,23.8,00.0,33.6,26.4,05.7,0000.0,0009.35,0001.77,0001.01
2021-12-08 20:09:00,,0814.0,5.00,0.00,24.6,23.8,00.0,33.6,26.3,05.5,0000.0,0009.68,0001.68,0000.93
2021-12-08 20:10:00,,0814.1,5.00,0.00,24.6,23.8,00.0,33.6,26.4,05.5,0000.0,0010.24,0001.49,0000.83
2021-12-08 20:11:00,,0814.0,5.00,0.00,24.6,23.8,00.0,33.6,26.4,05.5,0000.0,0009.72,0001.36,0000.75
2021-12-08 20:12:00,,0814.0,5.00,0.00,24.6,23.8,00.0,33.6,26.3,05.4,0000.0,0009.90,0001.21,0000.67
2021-12-08 20:13:00,,0814.1,5.00,0.00,24.6,23.8,00.0,33.6,26.3,05.4,0000.0,0009.94,0001.06,0000.60
2021-12-08 20:14:00,,0814.1,5.01,0.00,24.6,23.8,00.0,33.6,26.3,05.4,0000.0,0009.95,0000.99,0000.54
2021-12-08 20:15:00,,0813.9,4.99,0.00,24.6,23.8,00.0,33.6,26.3,05.3,0000.0,0010.27,0000.88,0000.47
2021-12-08 20:16:00,,0813.9,5.00,0.00,24.6,23.8,00.0,33.6,26.3,05.1,0000.0,0009.95,0000.81,0000.41
2021-12-08 20:17:00,,0814.0,5.00,0.00,24.6,23.8,00.0,33.6,26.3,05.2,0000.0,0009.75,0000.77,0000.37
2021-12-08 20:18:00,,0813.8,4.98,0.00,24.6,23.8,00.0,33.6,26.3,05.3,0000.0,0009.17,0000.73,0000.33
2021-12-08 20:19:00,,0813.9,5.00,0.00,24.6,23.8,00.0,33.6,26.2,05.3,0000.0,0008.40,0000.65,0000.28
2021-12-08 20:20:00,,0814.0,5.00,0.00,24.6,23.8,00.0,33.6,26.2,05.4,0000.0,0006.57,0000.56,0000.25
2021-12-08 20:21:00,,0814.2,5.00,0.00,24.6,23.8,00.0,33.6,26.2,05.4,0000.0,0005.19,0000.53,0000.23
2021-12-08 20:22:00,,0814.1,5.01,0.00,24.6,23.8,00.0,33.6,26.2,05.4,0000.0,0005.78,0000.52,0000.22
2021-12-08 20:23:00,,0813.5,5.01,0.00,24.5,23.8,00.0,33.6,26.2,05.5,0000.0,0005.99,0000.54,0000.22
2021-12-08 20:24:00,,0813.5,4.98,0.00,24.5,23.8,00.0,33.6,26.2,05.6,0000.0,0005.61,0000.54,0000.21
2021-12-08 20:25:00,,0813.5,5.00,0.00,24.5,23.7,00.0,33.6,26.2,05.6,0000.0,0007.14,0000.53,0000.21
2021-12-08 20:26:00,,0813.6,5.00,0.00,24.5,23.7,00.0,33.6,26.3,05.6,0000.0,0006.43,0000.54,0000.22
2021-12-08 20:27:00,,0813.5,5.00,0.00,24.5,23.7,00.0,33.6,26.4,05.7,0000.0,0006.36,0000.52,0000.22
2021-12-08 20:28:00,,0813.5,5.00,0.00,24.5,23.6,00.0,33.6,26.3,05.7,0000.0,0006.03,0000.49,0000.22
2021-12-08 20:29:00,,0813.5,5.01,0.00,24.5,23.6,00.0,33.6,26.3,05.6,0000.0,0005.65,0000.49,0000.22
2021-12-08 20:30:00,,0813.5,4.99,0.00,24.5,23.6,00.0,33.6,26.3,05.7,0000.0,0005.70,0000.51,0000.22
2021-12-08 20:31:00,,0813.5,5.00,0.00,24.5,23.5,00.0,33.5,26.2,05.8,0000.0,0005.75,0000.52,0000.23
2021-12-08 20:32:00,,0813.5,5.01,0.00,24.5,23.5,00.0,33.5,26.1,05.9,0000.0,0006.72,0000.52,0000.23
2021-12-08 20:33:00,,0813.5,4.98,0.00,24.5,23.5,00.0,33.5,26.1,05.9,0000.0,0006.38,0000.54,0000.23
2021-12-08 20:34:00,,0813.6,4.99,0.00,24.5,23.5,00.0,33.5,26.2,05.8,0000.0,0005.63,0000.57,0000.22
2021-12-08 20:35:00,,0813.6,4.99,0.00,24.5,23.6,00.0,33.5,26.2,05.9,0000.0,0006.05,0000.56,0000.22
2021-12-08 20:36:00,,0813.6,5.00,0.00,24.5,23.6,00.0,33.5,26.2,05.8,0000.0,0004.08,0000.53,0000.22
2021-12-08 20:37:00,,0813.5,5.00,0.00,24.5,23.6,00.0,33.5,26.2,05.8,0000.0,0003.79,0000.50,0000.21
2021-12-08 20:38:00,,0813.6,5.02,0.00,24.5,23.6,00.0,33.5,26.1,05.8,0000.0,0003.78,0000.49,0000.20
2021-12-08 20:39:00,,0813.6,4.98,0.00,24.4,23.6,00.0,33.5,26.1,05.8,0000.0,0003.82,0000.52,0000.20
2021-12-08 20:40:00,,0813.6,5.01,0.00,24.5,23.6,00.0,33.5,26.1,05.8,0000.0,0003.76,0000.50,0000.21
2021-12-08 20:41:00,,0813.6,4.99,0.00,24.5,23.6,00.0,33.5,26.1,05.8,0000.0,0003.85,0000.50,0000.20
2021-12-08 20:42:00,,0813.6,5.02,0.00,24.5,23.6,00.0,33.5,26.1,05.8,0000.0,0003.94,0000.49,0000.20
2021-12-08 20:43:00,,0813.5,4.99,0.00,24.5,23.6,00.0,33.5,26.2,05.9,0000.0,0004.32,0000.49,0000.21
2021-12-08 20:44:00,,0813.6,5.00,0.00,24.5,23.6,00.0,33.5,26.2,06.2,0000.0,0004.11,0000.47,0000.21
2021-12-08 20:45:00,,0813.5,4.99,0.00,24.5,23.6,00.0,33.5,26.1,06.2,0000.0,0003.45,0000.46,0000.22
2021-12-08 20:46:00,,0813.4,5.01,0.00,24.5,23.6,00.0,33.5,26.2,06.2,0000.0,0002.71,0000.43,0000.22
2021-12-08 20:47:00,,0813.5,5.00,0.00,24.5,23.6,00.0,33.5,26.2,06.2,0000.0,0002.72,0000.47,0000.22
2021-12-08 20:48:00,,0813.5,5.00,0.00,24.5,23.6,00.0,33.5,26.2,06.3,0000.0,0003.63,0000.60,0000.23
2021-12-08 20:49:00,,0813.5,5.01,0.00,24.5,23.5,00.0,33.5,26.1,06.3,0000.0,0004.60,0000.67,0000.24
2021-12-08 20:50:00,,0813.5,5.00,0.00,24.5,23.5,00.0,33.5,26.1,06.3,0000.0,0005.38,0000.64,0000.24
2021-12-08 20:51:00,,0813.4,5.01,0.00,24.5,23.5,00.0,33.5,26.1,06.3,0000.0,0005.44,0000.66,0000.24
2021-12-08 20:52:00,,0813.4,4.99,0.00,24.5,23.5,00.0,33.5,26.1,06.3,0000.0,0005.52,0000.67,0000.24
2021-12-08 20:53:00,,0813.5,5.00,0.00,24.5,23.5,00.0,33.5,26.1,06.5,0000.0,0005.40,0000.68,0000.24
2021-12-08 20:54:00,,0813.5,5.00,0.00,24.5,23.4,00.0,33.5,26.1,06.6,0000.0,0005.44,0000.70,0000.24
2021-12-08 20:55:00,,0813.5,5.00,0.00,24.5,23.4,00.0,33.5,26.1,06.5,0000.0,0005.95,0000.71,0000.24
2021-12-08 20:56:00,,0813.5,5.00,0.00,24.5,23.4,00.0,33.5,26.1,06.5,0000.0,0005.91,0000.66,0000.23
2021-12-08 20:57:00,,0813.4,5.00,0.00,24.5,23.4,00.0,33.5,26.1,06.6,0000.0,0006.08,0000.67,0000.22
2021-12-08 20:58:00,,0813.4,5.01,0.00,24.5,23.5,00.0,33.5,26.1,06.7,0000.0,0006.05,0000.63,0000.22
2021-12-08 20:59:00,,0813.4,5.00,0.00,24.5,23.5,00.0,33.5,26.1,06.7,0000.0,0005.05,0000.51,0000.22
